SCP
0 0 0 0 0 0 0 0 0 0 0 0 0 0 0 0 0 0 0 0 0 0 0 0 0 0 0 0 0 0 0 0
0 0 0 0 0 0 0 0 0 0 0 0 0 0 0 0 0 0 0 0 0 0 0 0 0 0 0 0 0 0 0 0
0 0 0 0 0 0 0 0 0 0 0 0 0 0 0 0 0 0 0 0 0 0 0 0 0 0 0 0 0 0 0 0
0 0 0 0 0 0 0 0 0 0 0 0 0 0 0 0 0 0 0 0 0 0 0 0 0 0 0 0 0 0 0 0
0 -0 0 0 0 0 0 0 0 0 0 0 0 0 0 0 0 0 0 0 0 0 0 0 0 0 0 0 0 0 0 0
-0 0 0 0 0 0 0 0 0 0 0 0 0 0 0 0 0 0 0 0 0 0 0 0 0 0 0 0 0 0 0 0
0 0 0 0 0 0 0 0 0 0 0 0 0 0 0 0 0 0 0 0 0 0 0 0 0 0 0 0 0 0 0 0
0 0 0 0 0 0 0 0 0 0 0 0 0 0 0 0 0 0 0 0 0 0 0 0 0 0 0 0 0 0 0 0
0 0 0 0 0 0 0 0 0 0 0 0 0 0 0 0 0 0 0 0 0 0 0 0 0 0 0 0 0 -0 0 0
0 0 0 0 0 0 0 0 0 0 0 0 0 0 0 0 0 0 0 0 0 0 0 0 0 0 0 0 0 0 0 0
0 0 0 0 0 0 0 0 0 0 0 0 0 0 0 0 0 0 0 0 0 0 0 0 0 0 0 0 0 0 0 0
0 0 0 0 0 0 0 0 0 0 0 0 0 0 0 0 0 0 0 0 0 0 0 0 0 0 0 0 0 0 0 0
0 0 0 0 0 0 0 0 0 0 0 0 0 0 0 0 0 0 0 0 0 0 0 0 -0 0 0 0 0 0 0 0
0 0 0 0 0 0 0 0 0 0 0 0 0 0 0 0 0 0 0 0 -0 -0 0 -0 0 0 0 0 0 0 0 0
-0 -0 0 0 0 0 0 0 0 0 0 0 0 0 0 0 0 0 0 0 -0 -0 -0 0 0 0 0 0 0 0 0 0
0 0 0 0 0 0 0 0 0 0 0 0 0 0 0 0 0 0 0 -0 -0 -0 -0 0 0 0 0 0 0 0 0 0
0 0 0 0 0 0 0 0 0 0 0 0 0 0 0 0 0 0 0 -0 -0 0 0 0 0 0 0 0 0 0 0 0
0 0 0 0 0 0 0 0 0 0 0 0 0 0 0 0 0 0 0 -0 0 0 -0 0 0 0 0 0 0 0 0 0
-0 0 0 0 0 0 0 0 0 0 0 0 0 0 0 0 0 0 0 0 0 0 0 0 0 0 0 0 0 0 0 0
-0 0 0 0 -0 0 0 0 0 0 0 0 0 0 0 0 0 0 0 0 0 0 0 0 0 0 0 0 0 0 0 0
Wind_Speed_500mb
75 68 55 42 40 46 50 49 43 36 28 28 28 23 25 26 28 27 28 31 26 22 20 19 21 26 32 28 30 38 42 45
78 69 58 51 50 54 55 54 45 36 26 26 18 16 17 18 20 25 31 26 25 22 19 19 20 22 22 24 25 31 36 40
76 66 57 54 58 62 60 56 46 33 24 19 13 16 16 15 19 23 27 26 25 22 20 21 25 24 22 23 26 31 37 43
77 76 69 65 62 68 67 57 41 27 20 12 10 11 12 17 20 23 26 27 27 27 26 21 24 26 26 26 26 30 38 39
85 80 78 69 67 64 66 53 38 25 15 12 10 13 15 23 22 24 24 25 25 27 27 27 23 26 27 26 27 29 35 37
85 85 80 71 65 65 58 45 31 20 14 10 8 12 20 24 25 26 25 25 25 25 28 27 24 27 26 27 29 29 34 37
90 91 82 74 65 60 51 38 25 16 12 8 8 14 24 24 23 22 23 25 24 27 24 22 24 24 25 26 29 29 31 34
86 91 80 74 64 55 43 30 22 16 13 8 9 17 25 27 24 18 20 20 23 25 22 23 23 20 23 26 30 29 30 31
70 83 73 74 65 54 40 28 24 18 14 9 10 19 25 23 22 16 18 21 20 21 21 22 21 18 17 18 32 32 31 30
45 59 73 80 68 48 34 28 22 18 12 8 13 21 20 26 19 14 17 20 19 20 22 18 16 14 15 22 31 36 34 32
47 59 78 76 62 44 32 29 21 16 9 6 13 18 23 25 18 12 18 13 9 15 20 17 15 12 18 24 30 36 36 33
50 71 80 72 52 36 33 27 19 13 9 6 12 18 24 18 13 11 7 2 5 11 15 15 14 15 20 24 29 33 33 30
56 71 79 61 43 36 33 25 17 12 14 9 10 18 20 13 10 7 3 4 8 14 17 17 16 16 20 23 29 30 28 28
57 69 64 48 38 36 32 25 15 13 14 8 12 17 16 13 12 10 9 12 15 21 21 17 15 14 14 19 27 30 27 25
59 68 63 49 42 39 32 25 16 14 16 9 11 16 13 15 16 12 5 10 21 27 24 17 15 15 14 14 18 23 18 24
55 68 59 48 43 39 32 21 18 16 16 9 5 14 11 13 17 12 2 14 22 29 24 18 15 12 9 9 15 23 18 27
60 63 54 46 43 40 30 23 19 21 15 7 2 4 13 13 19 12 7 16 23 26 22 20 10 13 8 7 11 12 13 25
59 63 54 42 39 35 28 21 20 22 15 9 4 3 14 16 16 12 12 17 24 23 20 20 10 12 8 7 5 5 10 18
65 63 51 40 38 34 27 25 25 20 15 11 8 1 11 11 12 6 11 13 20 22 19 18 18 13 8 7 10 10 14 18
65 62 52 46 43 36 31 28 28 23 17 17 9 4 8 8 11 4 7 16 21 22 19 21 20 18 14 11 14 13 12 16
Wind_Direction_500mb
205 212 217 226 228 226 230 224 222 236 246 263 276 280 288 287 288 286 292 296 278 289 275 274 259 257 258 254 247 232 233 225
210 214 217 224 225 224 223 220 223 233 244 273 270 297 299 288 288 282 283 279 278 279 277 264 259 255 265 251 249 234 229 228
218 220 220 227 227 224 221 216 220 232 258 266 274 291 299 298 298 289 276 276 273 280 277 271 265 259 265 261 249 234 227 228
224 216 221 226 226 223 220 215 217 230 255 255 278 310 301 303 302 296 285 280 274 276 259 273 272 264 264 263 250 238 225 225
227 224 223 226 228 222 211 209 215 232 251 257 278 305 320 315 302 291 288 280 277 269 259 267 273 266 260 257 245 233 219 217
230 227 227 224 219 207 203 207 216 229 244 251 298 327 326 316 298 284 282 282 274 273 266 258 264 257 259 259 236 231 216 214
227 228 226 224 214 205 200 206 217 230 240 258 307 328 331 323 311 291 282 278 274 263 259 250 252 259 258 248 229 224 218 213
230 228 223 218 207 203 206 209 215 223 228 247 309 324 325 322 313 289 279 283 265 256 249 232 245 261 256 241 221 214 211 202
235 231 225 205 202 200 201 211 208 215 215 248 313 326 326 327 323 294 288 280 271 251 228 230 246 260 251 232 206 200 203 199
232 224 208 200 199 192 200 202 202 196 217 255 314 321 327 327 324 300 295 284 268 240 218 230 241 239 224 189 185 195 196 193
229 205 197 194 194 189 202 198 192 192 213 265 311 324 322 324 330 303 299 298 262 224 206 216 217 208 186 181 188 190 194 200
215 196 189 191 185 190 195 191 184 193 210 254 314 333 334 331 341 330 305 334 179 169 196 192 185 187 186 182 186 190 200 201
201 193 189 181 181 191 187 182 178 211 222 263 320 339 346 345 349 328 306 204 188 174 166 172 174 178 183 186 188 195 200 201
193 187 177 174 180 185 183 180 189 207 211 238 324 335 343 356 348 330 301 237 194 167 165 163 162 155 166 176 183 192 206 208
188 179 176 176 182 180 180 185 208 202 192 221 323 342 343 8 360 343 310 185 182 173 170 158 157 146 153 162 184 186 200 221
186 179 174 180 180 180 179 193 188 201 199 201 321 341 356 359 355 10 85 170 174 175 174 170 165 168 170 169 177 189 215 197
183 176 180 181 181 180 182 178 172 189 194 219 213 10 19 6 7 24 118 158 171 172 175 173 183 194 193 183 182 207 207 194
179 179 180 181 181 178 183 176 175 185 182 161 135 22 10 19 20 61 113 137 161 167 174 179 185 191 188 146 186 173 170 184
179 180 179 176 176 180 184 179 188 188 181 176 203 286 356 19 17 80 79 150 163 174 184 193 194 182 156 150 148 132 136 162
181 179 177 179 178 180 185 185 194 188 188 188 177 233 345 22 20 106 108 135 157 172 174 170 170 159 131 133 132 130 138 140
Wind_Speed_850mb
75 68 55 42 40 46 50 49 43 36 28 28 28 23 25 26 28 27 28 31 26 22 20 19 21 26 32 28 30 38 42 45
78 69 58 51 50 54 55 54 45 36 26 26 18 16 17 18 20 25 31 26 25 22 19 19 20 22 22 24 25 31 36 40
76 66 57 54 58 62 60 56 46 33 24 19 13 16 16 15 19 23 27 26 25 22 20 21 25 24 22 23 26 31 37 43
77 76 69 65 62 68 67 57 41 27 20 12 10 11 12 17 20 23 26 27 27 27 26 21 24 26 26 26 26 30 38 39
85 80 78 69 67 64 66 53 38 25 15 12 10 13 15 23 22 24 24 25 25 27 27 27 23 26 27 26 27 29 35 37
85 85 80 71 65 65 58 45 31 20 14 10 8 12 20 24 25 26 25 25 25 25 28 27 24 27 26 27 29 29 34 37
90 91 82 74 65 60 51 38 25 16 12 8 8 14 24 24 23 22 23 25 24 27 24 22 24 24 25 26 29 29 31 34
86 91 80 74 64 55 43 30 22 16 13 8 9 17 25 27 24 18 20 20 23 25 22 23 23 20 23 26 30 29 30 31
70 83 73 74 65 54 40 28 24 18 14 9 10 19 25 23 22 16 18 21 20 21 21 22 21 18 17 18 32 32 31 30
45 59 73 80 68 48 34 28 22 18 12 8 13 21 20 26 19 14 17 20 19 20 22 18 16 14 15 22 31 36 34 32
47 59 78 76 62 44 32 29 21 16 9 6 13 18 23 25 18 12 18 13 9 15 20 17 15 12 18 24 30 36 36 33
50 71 80 72 52 36 33 27 19 13 9 6 12 18 24 18 13 11 7 2 5 11 15 15 14 15 20 24 29 33 33 30
56 71 79 61 43 36 33 25 17 12 14 9 10 18 20 13 10 7 3 4 8 14 17 17 16 16 20 23 29 30 28 28
57 69 64 48 38 36 32 25 15 13 14 8 12 17 16 13 12 10 9 12 15 21 21 17 15 14 14 19 27 30 27 25
59 68 63 49 42 39 32 25 16 14 16 9 11 16 13 15 16 12 5 10 21 27 24 17 15 15 14 14 18 23 18 24
55 68 59 48 43 39 32 21 18 16 16 9 5 14 11 13 17 12 2 14 22 29 24 18 15 12 9 9 15 23 18 27
60 63 54 46 43 40 30 23 19 21 15 7 2 4 13 13 19 12 7 16 23 26 22 20 10 13 8 7 11 12 13 25
59 63 54 42 39 35 28 21 20 22 15 9 4 3 14 16 16 12 12 17 24 23 20 20 10 12 8 7 5 5 10 18
65 63 51 40 38 34 27 25 25 20 15 11 8 1 11 11 12 6 11 13 20 22 19 18 18 13 8 7 10 10 14 18
65 62 52 46 43 36 31 28 28 23 17 17 9 4 8 8 11 4 7 16 21 22 19 21 20 18 14 11 14 13 12 16
Wind_Direction_850mb
205 212 217 226 228 226 230 224 222 236 246 263 276 280 288 287 288 286 292 296 278 289 275 274 259 257 258 254 247 232 233 225
210 214 217 224 225 224 223 220 223 233 244 273 270 297 299 288 288 282 283 279 278 279 277 264 259 255 265 251 249 234 229 228
218 220 220 227 227 224 221 216 220 232 258 266 274 291 299 298 298 289 276 276 273 280 277 271 265 259 265 261 249 234 227 228
224 216 221 226 226 223 220 215 217 230 255 255 278 310 301 303 302 296 285 280 274 276 259 273 272 264 264 263 250 238 225 225
227 224 223 226 228 222 211 209 215 232 251 257 278 305 320 315 302 291 288 280 277 269 259 267 273 266 260 257 245 233 219 217
230 227 227 224 219 207 203 207 216 229 244 251 298 327 326 316 298 284 282 282 274 273 266 258 264 257 259 259 236 231 216 214
227 228 226 224 214 205 200 206 217 230 240 258 307 328 331 323 311 291 282 278 274 263 259 250 252 259 258 248 229 224 218 213
230 228 223 218 207 203 206 209 215 223 228 247 309 324 325 322 313 289 279 283 265 256 249 232 245 261 256 241 221 214 211 202
235 231 225 205 202 200 201 211 208 215 215 248 313 326 326 327 323 294 288 280 271 251 228 230 246 260 251 232 206 200 203 199
232 224 208 200 199 192 200 202 202 196 217 255 314 321 327 327 324 300 295 284 268 240 218 230 241 239 224 189 185 195 196 193
229 205 197 194 194 189 202 198 192 192 213 265 311 324 322 324 330 303 299 298 262 224 206 216 217 208 186 181 188 190 194 200
215 196 189 191 185 190 195 191 184 193 210 254 314 333 334 331 341 330 305 334 179 169 196 192 185 187 186 182 186 190 200 201
201 193 189 181 181 191 187 182 178 211 222 263 320 339 346 345 349 328 306 204 188 174 166 172 174 178 183 186 188 195 200 201
193 187 177 174 180 185 183 180 189 207 211 238 324 335 343 356 348 330 301 237 194 167 165 163 162 155 166 176 183 192 206 208
188 179 176 176 182 180 180 185 208 202 192 221 323 342 343 8 360 343 310 185 182 173 170 158 157 146 153 162 184 186 200 221
186 179 174 180 180 180 179 193 188 201 199 201 321 341 356 359 355 10 85 170 174 175 174 170 165 168 170 169 177 189 215 197
183 176 180 181 181 180 182 178 172 189 194 219 213 10 19 6 7 24 118 158 171 172 175 173 183 194 193 183 182 207 207 194
179 179 180 181 181 178 183 176 175 185 182 161 135 22 10 19 20 61 113 137 161 167 174 179 185 191 188 146 186 173 170 184
179 180 179 176 176 180 184 179 188 188 181 176 203 286 356 19 17 80 79 150 163 174 184 193 194 182 156 150 148 132 136 162
181 179 177 179 178 180 185 185 194 188 188 188 177 233 345 22 20 106 108 135 157 172 174 170 170 159 131 133 132 130 138 140